Weather History for EGDR - November, 2012

Change the Weather History Date:

Wednesday, November 21, 2012

  Actual Average Record
Temperature  
Mean Temperature 48 °F -  
Max Temperature 53 °F 48 °F 57 °F (2014)
Min Temperature 44 °F 41 °F 32 °F (1996)
Degree Days  
Heating Degree Days 16    
Moisture  
Dew Point 47 °F    
Average Humidity 90    
Maximum Humidity 100    
Minimum Humidity 74    
Precipitation  
Precipitation 0.02 in - - ()
Sea Level Pressure  
Sea Level Pressure 29.80 in    
Wind  
Wind Speed 12 mph ()    
Max Wind Speed 25 mph    
Max Gust Speed 37 mph    
Visibility 5.3 miles    
Events Rain    
Averages and records for this station are not official NWS values.
T = Trace of Precipitation, MM = Missing Value Source: Averaged Metar Reports

Daily Weather History Graph

Daily Weather History Graph

Search for Another Location

Airport or City:

Trip Planner

Search our weather history database for the weather conditions in past years. The results will help you decide how hot, cold, wet, or windy it might be!

Date:

Astronomy

Nov. 21, 2012 Rise Set
Actual Time 7:44 AM GMT 4:29 PM GMT
Civil Twilight 7:07 AM GMT 5:05 PM GMT
Nautical Twilight 6:27 AM GMT 5:45 PM GMT
Astronomical Twilight 5:49 AM GMT 6:24 PM GMT
Moon 1:13 PM GMT (11/21) 12:09 AM GMT (11/21)
Length of Visible Light 9h 58m
Length of Day
8h 45m
First Quarter, 59% of the Moon is Illuminated
Nov 21
First Quarter
Nov 28
Full
Dec 6
Last Quarter
Dec 13
New
Dec 20
First Quarter

Hourly Weather History & Observations

Time (GMT) Temp. Windchill Dew Point Humidity Pressure Visibility Wind Dir Wind Speed Gust Speed Precip Events Conditions
12:50 AM 46.4 °F 41.9 °F 44.6 °F 93% 29.65 in 1.2 mi North 9.2 mph - N/A Rain Heavy Rain
1:50 AM 44.6 °F 38.8 °F 44.6 °F 100% 29.62 in 2.2 mi North 11.5 mph - N/A Rain Heavy Rain
2:50 AM 45 °F - 43 °F 91% 29.63 in 2 mi NNE 15.0 mph - - Rain Heavy Rain
2:50 AM 44.6 °F 37.8 °F 42.8 °F 93% 29.62 in 2.2 mi NNE 15.0 mph - N/A Rain Heavy Rain
3:50 AM 44.6 °F 38.8 °F 42.8 °F 93% 29.59 in 2.2 mi North 11.5 mph - N/A Rain Rain
4:50 AM 44.6 °F 38.1 °F 42.8 °F 93% 29.62 in 2.2 mi North 13.8 mph - N/A Rain Rain
5:50 AM 45 °F - 44 °F 95% 29.67 in 2 mi North 12.7 mph - - Rain Light Rain
5:50 AM 44.6 °F 38.4 °F 44.6 °F 100% 29.65 in 2.2 mi North 12.7 mph - N/A Rain Light Rain
6:50 AM 44.6 °F 39.7 °F 44.6 °F 100% 29.68 in 3.7 mi NNW 9.2 mph - N/A   Light Drizzle
7:50 AM 44.6 °F 39.7 °F 44.6 °F 100% 29.74 in 6.2 mi WNW 9.2 mph - N/A   Mostly Cloudy
8:50 AM 46 °F - 44 °F 91% 29.79 in 16 mi WNW 8.1 mph - -   Partly Cloudy
8:50 AM 46.4 °F 42.4 °F 44.6 °F 93% 29.77 in 6.2 mi WNW 8.1 mph - N/A   Mostly Cloudy
9:50 AM 50.0 °F - 46.4 °F 87% 29.80 in 6.2 mi West 9.2 mph - N/A Rain Light Rain
10:50 AM 50.0 °F - 46.4 °F 87% 29.83 in 6.2 mi West 11.5 mph 24.2 mph N/A   Scattered Clouds
11:50 AM 50 °F - 47 °F 88% 29.85 in 9 mi West 15.0 mph - - Rain Light Rain Showers
11:50 AM 50.0 °F - 48.2 °F 94% 29.83 in 6.2 mi West 15.0 mph - N/A   Scattered Clouds
12:50 PM 51.8 °F - 48.2 °F 88% 29.86 in 6.2 mi West 11.5 mph 23.0 mph N/A   Scattered Clouds
1:50 PM 51.8 °F - 46.4 °F 82% 29.86 in 6.2 mi West 11.5 mph 25.3 mph N/A   Mostly Cloudy
2:50 PM 51 °F - 45 °F 74% 29.90 in 12 mi West 11.5 mph - -   Mostly Cloudy
2:50 PM 51.8 °F - 44.6 °F 76% 29.89 in 6.2 mi West 11.5 mph 24.2 mph N/A   Scattered Clouds
3:50 PM 51.8 °F - 46.4 °F 82% 29.89 in 6.2 mi WSW 15.0 mph - N/A   Partly Cloudy
4:50 PM 51.8 °F - 46.4 °F 82% 29.89 in 6.2 mi SW 17.3 mph - N/A   Mostly Cloudy
5:50 PM 52 °F - 48 °F 82% 29.91 in 7 mi SSW 20.7 mph - - Rain Light Rain
5:50 PM 51.8 °F - 48.2 °F 88% 29.89 in 6.2 mi SSW 20.7 mph - N/A   Mostly Cloudy
6:50 PM 51.8 °F - 50.0 °F 94% 29.89 in 4.3 mi SSW 19.6 mph 32.2 mph N/A   Haze
7:50 PM 53.6 °F - 50.0 °F 88% 29.89 in 4.3 mi SSW 17.3 mph 33.4 mph N/A   Haze
8:50 PM 53 °F - 51 °F 90% 29.90 in 4 mi SSW 20.7 mph - - Rain Light Rain Showers
8:50 PM 53.6 °F - 51.8 °F 94% 29.89 in 4.3 mi SSW 20.7 mph 35.7 mph N/A   Haze
9:50 PM 53.6 °F - 51.8 °F 94% 29.89 in 4.3 mi SSW 21.9 mph 36.8 mph N/A   Haze
10:50 PM 53.6 °F - 51.8 °F 94% 29.86 in 4.3 mi SSW 25.3 mph 36.8 mph N/A   Haze
11:50 PM 53 °F - 52 °F 94% 29.88 in 7 mi SW 25.3 mph - - Rain Light Rain Showers
11:50 PM 53.6 °F - 51.8 °F 94% 29.86 in 6.2 mi SW 25.3 mph - N/A Rain Light Rain Showers